Regional Weather Roundup
Issued by NWS Charleston, SC

Current Version | Previous Version | Text Only | Print | Product List | Glossary Off
Versions: 1 2 3 4 5 6 7 8 9 10 11 12 13 14 15 16 17 18 19 20 21 22 23 24 25 26 27 28 29 30 31 32 33 34 35 36 37 38 39 40 41 42 43 44 45 46 47 48 49 50

000
ASUS42 KCHS 290213
RWRCHS

REGIONAL WEATHER ROUNDUP
NATIONAL WEATHER SERVICE CHARLESTON SC
1000 PM EDT THU JUL 28 2016

NOTE: "FAIR" INDICATES FEW OR NO CLOUDS BELOW 12,000 FEET WITH NO
SIGNIFICANT WEATHER AND/OR OBSTRUCTIONS TO VISIBILITY.

NOT ALL STATIONS ARE QUALITY CONTROLLED. USE DATA WITH CAUTION...
ESPECIALLY DEWPOINT OBSERVATIONS.

SCZ027-030-031-034>040-042>050-290300-
...SOUTHEAST SOUTH CAROLINA...

CITY           SKY/WX    TMP DP  RH WIND       PRES   REMARKS
N CHARLESTON   CLEAR     85  77  77 SW10      29.96R HX  95
WATERFRONT PRK   N/A     86  80  82 SW8       29.93R HX 101
MOUNT PLEASANT FAIR      84  79  84 S3        29.96R HX  96
JOHNS ISLAND   FAIR      86  79  79 S9        29.97R HX  99
PINOPOLIS        N/A     86  77  74 SW6       29.86R HX  97
MONCKS CORNER  FAIR      82  73  74 SW9       29.95R
SUMMERVILLE    NOT AVBL
BEAUFORT MCAS  PTCLDY    86  78  77 S7        29.97R HX  98
BEAUFORT ARPT  FAIR      86  79  79 SW7       29.97R HX  99
HILTON HEAD IS CLEAR     88  81  79 S8G18     29.98R HX 105
WALTERBORO     CLEAR     86  77  74 S8        29.97R HX  97
ALLENDALE      FAIR      84  70  61 CALM      29.95R

...SOUTHERN MIDLANDS AND PEE DEE...

CITY           SKY/WX    TMP DP  RH WIND       PRES   REMARKS
GEORGETOWN     FAIR      81  75  83 SW8       29.95R
KINGSTREE      FAIR      82  68  61 S6        29.93R
ORANGEBURG     CLEAR     84  68  58 SW6       29.95R
BARNWELL       NOT AVBL
AIKEN          FAIR      82  66  57 SW3       30.00R
MANNING        FAIR      86  72  62 S3        29.94R HX  92
COLUMBIA       CLEAR     89  68  49 SW6       29.93R HX  93
SUMTER         CLEAR     86  68  55 SW8       29.91R
FLORENCE       PTCLDY    87  69  54 SW9       29.92R HX  91
MYRTLE BEACH   CLEAR     86  72  62 SW8       29.95R HX  92
N MYRTLE BEACH CLEAR     85  78  80 SW15      29.93R HX  96

$$

GAZ063-065-086>088-099>101-113>116-118-119-134>141-150-290300-
...SOUTHEAST GEORGIA...

CITY           SKY/WX    TMP DP  RH WIND       PRES   REMARKS
SAVANNAH ARPT  PTCLDY    86  77  74 S10       29.98R HX  97
HUNTER AAF     NOT AVBL
FORT STEWART   NOT AVBL
STATESBORO     CLEAR     81  74  79 CALM      29.97R
SYLVANIA       NOT AVBL
CLAXTON        FAIR      82  72  70 CALM      29.98R

...CSRA...CENTRAL AND FAR SOUTHEAST GEORGIA...

CITY           SKY/WX    TMP DP  RH WIND       PRES   REMARKS
THOMSON        NOT AVBL
AUGUSTA-BUSH   CLEAR     88  65  46 SW3       29.95R HX  90
AUGUSTA-DANIEL CLEAR     89  66  46 W5        29.97R HX  91
SWAINSBORO     FAIR      86  64  48 CALM      29.99R
VIDALIA        CLEAR     84  66  54 CALM      29.99R
EASTMAN        FAIR      82  60  47 CALM      30.02R
HAZLEHURST     FAIR      86  72  62 CALM      29.99R HX  92
ALMA           CLEAR     82  71  69 SW3       30.00R
WAYCROSS       CLEAR     88  73  60 W5        30.00R HX  96
JESUP          FAIR      81  75  83 CALM      29.99R
BAXLEY         FAIR      82  73  74 CALM      29.99R
BRUNSWICK      CLOUDY    86  77  74 SW6       30.00R HX  97
SAINT SIMONS   PTCLDY    87  77  72 VRB7      30.00R HX  99

$$

SCZ027-028-034-036>038-045-046-048>050-GAZ119-141-290300-
...LAKE AND SUPPLEMENTAL COASTAL OBSERVATIONS...

STATION/POSITION TIME  TEMP    WIND        PRES    WAVE   SWELL
                       AIR SEA DIR/SP/G            HT/PER HT/PER/DIR
                 (UTC) (F)     (DEG/KT/KT) (MB)    (FT/S) (FT/S/D)
WINYAH BAY       NOT AVBL
LAKE MURRAY      0100   90     250/  5/  9 1012.5R
ACE BASIN NERRS  NOT AVBL
FORT PULASKI     0100   86 88                N/A
SAPELO ISLAND    0100   87     180/ 14     1015.0R

$$

ANZ835-935-AMZ111-154-330-350-352-354-370-450-454-472-290300-
...C-MAN AND BUOY OBSERVATIONS...

STATION/POSITION TIME  TEMP    WIND        PRES    WAVE   SWELL
                       AIR SEA DIR/SP/G            HT/PER HT/PER/DIR
                 (UTC) (F)     (DEG/KT/KT) (MB)    (FT/S) (FT/S/D)
BUOY 41004       0150   86 86  200/ 17/ 21 1013.9R   3/ 4   2/140/ 8
BUOY 41008       0150   87 87  180/ 17/ 21 1015.1R   3/ 4   2/100/ 8
FOLLY BEACH CMAN 0100   86     200/ 15/ 18 1014.2R
CAPERS NEARSHORE 0108   85 84  220/ 16/ 21 1013.7R
FRIPP NEARSHORE  0108   87 87  200/ 17/ 23 1013.4R


STATION/POSITION TIME  TEMP    WIND        PRES    WAVE   SWELL
                       AIR SEA DIR/SP/G            HT/PER HT/PER/DIR
                 (UTC) (F)     (DEG/KT/KT) (MB)    (FT/S) (FT/S/D)
5E ST. MARYS GA  0201      86                N/A     2/ 4
FRYING PAN BUOY  0100   86 85  220/ 19/ 23 1012.9F
BUOY 41025       0150   86 85  230/ 17/ 19 1012.4R   3/ 4   2/180/11
CAPE LOOKOUT NC  0100   85     220/ 11/ 14 1011.8R
BUOY 41002       0150   84 85  250/ 10/ 12 1015.8R   3/ 6   3/250/ 6
BUOY 41010       0120   85 87  230/  6/  6 1017.4R
ST AUGUSTINE FL  0200   83 87  220/ 10/ 13 1017.9R


$$




USA.gov is the U.S. government's official web portal to all federal, state and local government web resources and services.